Location: North Runcton
(52.7000°N, 0.4333°E)
Time: 07:27:03
(UTC+00:00)

Cosmos 1500 Rocket - Pass Details

Date: 19 May 2025
Orbit: 598 x 623 km, 82.5° (Epoch: 18 June)

Event Time Altitude Azimuth Distance (km) Brightness Sun altitude
Rises 22:44:57 0° 352° (N) 2,879 8.7 -15.8°
Reaches altitude 10° 22:47:14 10° 358° (N) 1,974 7.4 -15.8°
Maximum altitude 22:51:29 50° 74° (ENE) 788 4.0 -16.0°
Enters shadow 22:53:39 26° 137° (SE) 1,210 4.5 -16.1°
